date,time,SUV Intensity [MED/Hr],UV Index,Daily total [MED],Since Last [MED]
15/08/2023,00:00:07,0.000,0.0,0.0,0.0
15/08/2023,00:01:07,0.001,0.0,0.0,0.0
15/08/2023,00:02:07,0.000,0.0,0.0,0.0
15/08/2023,00:03:08,0.000,0.0,0.0,0.0
15/08/2023,00:04:07,0.000,0.0,0.0,0.0
15/08/2023,00:05:07,0.001,0.0,0.0,0.0
15/08/2023,00:06:07,0.000,0.0,0.0,0.0
15/08/2023,00:07:07,0.000,0.0,0.0,0.0
15/08/2023,00:08:07,0.001,0.0,0.0,0.0
15/08/2023,00:09:07,0.001,0.0,0.0,0.0
15/08/2023,00:10:07,0.001,0.0,0.0,0.0
15/08/2023,00:11:08,0.000,0.0,0.0,0.0
15/08/2023,00:12:07,0.000,0.0,0.0,0.0
15/08/2023,00:13:07,0.000,0.0,0.0,0.0
15/08/2023,00:14:07,0.000,0.0,0.0,0.0
15/08/2023,00:15:07,-0.000,0.0,0.0,0.0
15/08/2023,00:16:07,0.000,0.0,0.0,0.0
15/08/2023,00:17:07,-0.000,0.0,0.0,0.0
15/08/2023,00:18:07,0.000,0.0,0.0,0.0
15/08/2023,00:19:07,0.000,0.0,0.0,0.0
15/08/2023,00:20:07,0.000,0.0,0.0,0.0
15/08/2023,00:21:08,-0.001,0.0,0.0,0.0
15/08/2023,00:22:07,0.000,0.0,0.0,0.0
15/08/2023,00:23:07,0.000,0.0,0.0,0.0
15/08/2023,00:24:07,-0.001,0.0,0.0,0.0
15/08/2023,00:25:08,-0.000,0.0,0.0,0.0
15/08/2023,00:26:07,-0.000,0.0,0.0,0.0
15/08/2023,00:27:08,0.000,0.0,0.0,0.0
15/08/2023,00:28:07,-0.001,0.0,0.0,0.0
15/08/2023,00:29:07,0.000,0.0,0.0,0.0
15/08/2023,00:30:07,0.000,0.0,0.0,0.0
15/08/2023,00:31:07,0.000,0.0,0.0,0.0
15/08/2023,00:32:07,0.000,0.0,0.0,0.0
15/08/2023,00:33:08,0.000,0.0,0.0,0.0
15/08/2023,00:34:07,0.001,0.0,0.0,0.0
15/08/2023,00:35:07,0.000,0.0,0.0,0.0
15/08/2023,00:36:07,0.001,0.0,0.0,0.0
15/08/2023,00:37:07,0.000,0.0,0.0,0.0
15/08/2023,00:38:07,0.000,0.0,0.0,0.0
15/08/2023,00:39:07,0.000,0.0,0.0,0.0
15/08/2023,00:40:07,0.000,0.0,0.0,0.0
15/08/2023,00:41:07,0.000,0.0,0.0,0.0
15/08/2023,00:42:07,-0.000,0.0,0.0,0.0
15/08/2023,00:43:08,0.000,0.0,0.0,0.0
15/08/2023,00:44:07,0.000,0.0,0.0,0.0
15/08/2023,00:45:07,-0.001,0.0,0.0,0.0
15/08/2023,00:46:07,-0.000,0.0,0.0,0.0
15/08/2023,00:47:05,0.000,0.0,0.0,0.0
15/08/2023,00:48:05,0.000,0.0,0.0,0.0
15/08/2023,00:49:07,0.001,0.0,0.0,0.0
15/08/2023,00:50:05,0.000,0.0,0.0,0.0
15/08/2023,00:51:05,-0.000,0.0,0.0,0.0
15/08/2023,00:52:07,0.000,0.0,0.0,0.0
15/08/2023,00:53:07,0.000,0.0,0.0,0.0
15/08/2023,00:54:07,0.000,0.0,0.0,0.0
15/08/2023,00:55:07,0.001,0.0,0.0,0.0
15/08/2023,00:56:07,0.000,0.0,0.0,0.0
15/08/2023,00:57:07,0.000,0.0,0.0,0.0
15/08/2023,00:58:07,0.000,0.0,0.0,0.0
15/08/2023,00:59:08,0.000,0.0,0.0,0.0
15/08/2023,01:00:07,0.001,0.0,0.0,0.0
15/08/2023,01:01:07,0.000,0.0,0.0,0.0
15/08/2023,01:02:08,0.000,0.0,0.0,0.0
15/08/2023,01:03:08,0.000,0.0,0.0,0.0
15/08/2023,01:04:07,0.000,0.0,0.0,0.0
15/08/2023,01:05:08,0.000,0.0,0.0,0.0
15/08/2023,01:06:07,0.000,0.0,0.0,0.0
15/08/2023,01:07:08,0.001,0.0,0.0,0.0
15/08/2023,01:08:07,0.000,0.0,0.0,0.0
15/08/2023,01:09:07,-0.001,0.0,0.0,0.0
15/08/2023,01:10:07,0.000,0.0,0.0,0.0
15/08/2023,01:11:08,0.000,0.0,0.0,0.0
15/08/2023,01:12:07,0.000,0.0,0.0,0.0
15/08/2023,01:13:07,0.000,0.0,0.0,0.0
15/08/2023,01:14:08,0.000,0.0,0.0,0.0
15/08/2023,01:15:07,0.000,0.0,0.0,0.0
15/08/2023,01:16:07,0.001,0.0,0.0,0.0
15/08/2023,01:17:07,0.000,0.0,0.0,0.0
15/08/2023,01:18:07,0.001,0.0,0.0,0.0
15/08/2023,01:19:07,0.000,0.0,0.0,0.0
15/08/2023,01:20:07,0.001,0.0,0.0,0.0
15/08/2023,01:21:08,0.001,0.0,0.0,0.0
15/08/2023,01:22:07,-0.001,0.0,0.0,0.0
15/08/2023,01:23:08,0.000,0.0,0.0,0.0
15/08/2023,01:24:07,-0.001,0.0,0.0,0.0
15/08/2023,01:25:07,0.001,0.0,0.0,0.0
15/08/2023,01:26:07,0.001,0.0,0.0,0.0
15/08/2023,01:27:08,-0.000,0.0,0.0,0.0
15/08/2023,01:28:07,-0.000,0.0,0.0,0.0
15/08/2023,01:29:08,0.000,0.0,0.0,0.0
15/08/2023,01:30:07,0.000,0.0,0.0,0.0
15/08/2023,01:31:07,0.000,0.0,0.0,0.0
15/08/2023,01:32:08,0.000,0.0,0.0,0.0
15/08/2023,01:33:07,0.000,0.0,0.0,0.0
15/08/2023,01:34:07,-0.001,0.0,0.0,0.0
15/08/2023,01:35:07,0.000,0.0,0.0,0.0
15/08/2023,01:36:08,0.001,0.0,0.0,0.0
15/08/2023,01:37:07,0.000,0.0,0.0,0.0
15/08/2023,01:38:07,-0.000,0.0,0.0,0.0
15/08/2023,01:39:07,-0.000,0.0,0.0,0.0
15/08/2023,01:40:07,0.001,0.0,0.0,0.0
15/08/2023,01:41:08,0.001,0.0,0.0,0.0
15/08/2023,01:42:07,-0.000,0.0,0.0,0.0
15/08/2023,01:43:07,-0.001,0.0,0.0,0.0
15/08/2023,01:44:07,0.000,0.0,0.0,0.0
15/08/2023,01:45:08,0.000,0.0,0.0,0.0
15/08/2023,01:46:07,0.000,0.0,0.0,0.0
15/08/2023,01:47:07,0.002,0.0,0.0,0.0
15/08/2023,01:48:08,0.000,0.0,0.0,0.0
15/08/2023,01:49:07,0.000,0.0,0.0,0.0
15/08/2023,01:50:07,-0.000,0.0,0.0,0.0
15/08/2023,01:51:07,0.000,0.0,0.0,0.0
15/08/2023,01:52:07,0.001,0.0,0.0,0.0
15/08/2023,01:53:07,0.001,0.0,0.0,0.0
15/08/2023,01:54:07,0.001,0.0,0.0,0.0
15/08/2023,01:55:07,0.000,0.0,0.0,0.0
15/08/2023,01:56:08,-0.000,0.0,0.0,0.0
15/08/2023,01:57:07,0.001,0.0,0.0,0.0
15/08/2023,01:58:07,0.000,0.0,0.0,0.0
15/08/2023,01:59:07,0.000,0.0,0.0,0.0
15/08/2023,02:00:07,0.000,0.0,0.0,0.0
15/08/2023,02:01:07,0.001,0.0,0.0,0.0
15/08/2023,02:02:08,0.001,0.0,0.0,0.0
15/08/2023,02:03:07,0.000,0.0,0.0,0.0
15/08/2023,02:04:07,0.001,0.0,0.0,0.0
15/08/2023,02:05:07,0.000,0.0,0.0,0.0
15/08/2023,02:06:07,0.000,0.0,0.0,0.0
15/08/2023,02:07:08,0.000,0.0,0.0,0.0
15/08/2023,02:08:07,0.001,0.0,0.0,0.0
15/08/2023,02:09:07,0.001,0.0,0.0,0.0
15/08/2023,02:10:07,0.001,0.0,0.0,0.0
15/08/2023,02:11:08,0.001,0.0,0.0,0.0
15/08/2023,02:12:08,0.001,0.0,0.0,0.0
15/08/2023,02:13:07,0.000,0.0,0.0,0.0
15/08/2023,02:14:07,0.001,0.0,0.0,0.0
15/08/2023,02:15:07,0.001,0.0,0.0,0.0
15/08/2023,02:16:08,0.001,0.0,0.0,0.0
15/08/2023,02:17:07,-0.000,0.0,0.0,0.0
15/08/2023,02:18:08,0.000,0.0,0.0,0.0
15/08/2023,02:19:07,0.001,0.0,0.0,0.0
15/08/2023,02:20:07,-0.001,0.0,0.0,0.0
15/08/2023,02:21:07,0.001,0.0,0.0,0.0
15/08/2023,02:22:08,-0.000,0.0,0.0,0.0
15/08/2023,02:23:07,0.002,0.0,0.0,0.0
15/08/2023,02:24:07,0.001,0.0,0.0,0.0
15/08/2023,02:25:07,0.001,0.0,0.0,0.0
15/08/2023,02:26:07,0.001,0.0,0.0,0.0
15/08/2023,02:27:08,0.001,0.0,0.0,0.0
15/08/2023,02:28:07,0.001,0.0,0.0,0.0
15/08/2023,02:29:07,0.000,0.0,0.0,0.0
15/08/2023,02:30:07,0.001,0.0,0.0,0.0
15/08/2023,02:31:07,0.000,0.0,0.0,0.0
15/08/2023,02:32:07,0.000,0.0,0.0,0.0
15/08/2023,02:33:07,0.001,0.0,0.0,0.0
15/08/2023,02:34:07,-0.000,0.0,0.0,0.0
15/08/2023,02:35:08,0.002,0.0,0.0,0.0
15/08/2023,02:36:07,0.001,0.0,0.0,0.0
15/08/2023,02:37:08,0.001,0.0,0.0,0.0
15/08/2023,02:38:07,-0.000,0.0,0.0,0.0
15/08/2023,02:39:08,0.001,0.0,0.0,0.0
15/08/2023,02:40:07,0.001,0.0,0.0,0.0
15/08/2023,02:41:08,0.001,0.0,0.0,0.0
15/08/2023,02:42:07,0.001,0.0,0.0,0.0
15/08/2023,02:43:08,0.001,0.0,0.0,0.0
15/08/2023,02:44:07,0.001,0.0,0.0,0.0
15/08/2023,02:45:07,0.001,0.0,0.0,0.0
15/08/2023,02:46:08,-0.000,0.0,0.0,0.0
15/08/2023,02:47:07,0.001,0.0,0.0,0.0
15/08/2023,02:48:08,0.001,0.0,0.0,0.0
15/08/2023,02:49:07,0.002,0.0,0.0,0.0
15/08/2023,02:50:08,0.001,0.0,0.0,0.0
15/08/2023,02:51:07,-0.001,0.0,0.0,0.0
15/08/2023,02:52:07,0.000,0.0,0.0,0.0
15/08/2023,02:53:08,-0.001,0.0,0.0,0.0
15/08/2023,02:54:08,-0.001,0.0,0.0,0.0
15/08/2023,02:55:07,0.001,0.0,0.0,0.0
15/08/2023,02:56:07,0.000,0.0,0.0,0.0
15/08/2023,02:57:07,0.000,0.0,0.0,0.0
15/08/2023,02:58:08,0.000,0.0,0.0,0.0
15/08/2023,02:59:08,0.001,0.0,0.0,0.0
15/08/2023,03:00:07,0.000,0.0,0.0,0.0
15/08/2023,03:01:07,0.000,0.0,0.0,0.0
15/08/2023,03:02:07,0.000,0.0,0.0,0.0
15/08/2023,03:03:08,0.001,0.0,0.0,0.0
15/08/2023,03:04:07,0.000,0.0,0.0,0.0
15/08/2023,03:05:07,0.001,0.0,0.0,0.0
15/08/2023,03:06:07,0.000,0.0,0.0,0.0
15/08/2023,03:07:08,-0.000,0.0,0.0,0.0
15/08/2023,03:08:07,-0.000,0.0,0.0,0.0
15/08/2023,03:09:08,-0.001,0.0,0.0,0.0
15/08/2023,03:10:07,0.001,0.0,0.0,0.0
15/08/2023,03:11:07,0.001,0.0,0.0,0.0
15/08/2023,03:12:08,0.001,0.0,0.0,0.0
15/08/2023,03:13:07,0.002,0.0,0.0,0.0
15/08/2023,03:14:08,0.001,0.0,0.0,0.0
15/08/2023,03:15:07,-0.000,0.0,0.0,0.0
15/08/2023,03:16:07,0.000,0.0,0.0,0.0
15/08/2023,03:17:08,0.001,0.0,0.0,0.0
15/08/2023,03:18:08,0.001,0.0,0.0,0.0
15/08/2023,03:19:07,0.001,0.0,0.0,0.0
15/08/2023,03:20:07,0.001,0.0,0.0,0.0
15/08/2023,03:21:08,0.001,0.0,0.0,0.0
15/08/2023,03:22:09,-0.000,0.0,0.0,0.0
15/08/2023,03:23:08,0.001,0.0,0.0,0.0
15/08/2023,03:24:07,0.001,0.0,0.0,0.0
15/08/2023,03:25:07,0.000,0.0,0.0,0.0
15/08/2023,03:26:08,0.000,0.0,0.0,0.0
15/08/2023,03:27:07,0.000,0.0,0.0,0.0
15/08/2023,03:28:07,0.001,0.0,0.0,0.0
15/08/2023,03:29:08,0.001,0.0,0.0,0.0
15/08/2023,03:30:08,0.001,0.0,0.0,0.0
15/08/2023,03:31:07,0.002,0.0,0.0,0.0
15/08/2023,03:32:07,0.000,0.0,0.0,0.0
15/08/2023,03:33:08,0.001,0.0,0.0,0.0
15/08/2023,03:34:07,0.001,0.0,0.0,0.0
15/08/2023,03:35:08,0.000,0.0,0.0,0.0
15/08/2023,03:36:08,0.001,0.0,0.0,0.0
15/08/2023,03:37:08,0.001,0.0,0.0,0.0
15/08/2023,03:38:08,0.001,0.0,0.0,0.0
15/08/2023,03:39:07,-0.000,0.0,0.0,0.0
15/08/2023,03:40:08,0.001,0.0,0.0,0.0
15/08/2023,03:41:08,0.000,0.0,0.0,0.0
15/08/2023,03:42:07,0.001,0.0,0.0,0.0
15/08/2023,03:43:07,0.001,0.0,0.0,0.0
15/08/2023,03:44:08,0.001,0.0,0.0,0.0
15/08/2023,03:45:08,0.001,0.0,0.0,0.0
15/08/2023,03:46:05,0.001,0.0,0.0,0.0
15/08/2023,03:47:05,0.000,0.0,0.0,0.0
15/08/2023,03:48:08,0.001,0.0,0.0,0.0
15/08/2023,03:49:07,0.000,0.0,0.0,0.0
15/08/2023,03:50:07,0.001,0.0,0.0,0.0
15/08/2023,03:51:07,0.001,0.0,0.0,0.0
15/08/2023,03:52:08,0.001,0.0,0.0,0.0
15/08/2023,03:53:07,0.002,0.0,0.0,0.0
15/08/2023,03:54:07,0.001,0.0,0.0,0.0
15/08/2023,03:55:07,-0.000,0.0,0.0,0.0
15/08/2023,03:56:08,0.001,0.0,0.0,0.0
15/08/2023,03:57:07,-0.000,0.0,0.0,0.0
15/08/2023,03:58:08,-0.000,0.0,0.0,0.0
15/08/2023,03:59:07,0.001,0.0,0.0,0.0
15/08/2023,04:00:08,0.001,0.0,0.0,0.0
15/08/2023,04:01:07,0.001,0.0,0.0,0.0
15/08/2023,04:02:08,0.001,0.0,0.0,0.0
15/08/2023,04:03:05,0.000,0.0,0.0,0.0
15/08/2023,04:04:06,-0.000,0.0,0.0,0.0
15/08/2023,04:05:08,0.001,0.0,0.0,0.0
15/08/2023,04:06:07,0.000,0.0,0.0,0.0
15/08/2023,04:07:08,0.001,0.0,0.0,0.0
15/08/2023,04:08:08,-0.000,0.0,0.0,0.0
15/08/2023,04:09:07,0.001,0.0,0.0,0.0
15/08/2023,04:10:07,0.001,0.0,0.0,0.0
15/08/2023,04:11:08,0.000,0.0,0.0,0.0
15/08/2023,04:12:08,-0.001,0.0,0.0,0.0
15/08/2023,04:13:06,0.001,0.0,0.0,0.0
15/08/2023,04:14:06,0.001,0.0,0.0,0.0
15/08/2023,04:15:08,0.000,0.0,0.0,0.0
15/08/2023,04:16:07,0.000,0.0,0.0,0.0
15/08/2023,04:17:08,0.001,0.0,0.0,0.0
15/08/2023,04:18:07,-0.000,0.0,0.0,0.0
15/08/2023,04:19:07,-0.000,0.0,0.0,0.0
15/08/2023,04:20:07,0.002,0.0,0.0,0.0
15/08/2023,04:21:08,0.001,0.0,0.0,0.0
15/08/2023,04:22:07,0.001,0.0,0.0,0.0
15/08/2023,04:23:09,0.001,0.0,0.0,0.0
15/08/2023,04:24:08,0.001,0.0,0.0,0.0
15/08/2023,04:25:07,0.001,0.0,0.0,0.0
15/08/2023,04:26:08,0.001,0.0,0.0,0.0
15/08/2023,04:27:07,0.001,0.0,0.0,0.0
15/08/2023,04:28:08,0.000,0.0,0.0,0.0
15/08/2023,04:29:07,0.001,0.0,0.0,0.0
15/08/2023,04:30:07,0.001,0.0,0.0,0.0
15/08/2023,04:31:07,0.001,0.0,0.0,0.0
15/08/2023,04:32:08,0.001,0.0,0.0,0.0
15/08/2023,04:33:07,0.002,0.0,0.0,0.0
15/08/2023,04:34:08,0.001,0.0,0.0,0.0
15/08/2023,04:35:07,0.001,0.0,0.0,0.0
15/08/2023,04:36:07,0.001,0.0,0.0,0.0
15/08/2023,04:37:08,0.002,0.0,0.0,0.0
15/08/2023,04:38:07,0.002,0.0,0.0,0.0
15/08/2023,04:39:05,0.003,0.0,0.0,0.0
15/08/2023,04:40:08,0.001,0.0,0.0,0.0
15/08/2023,04:41:07,0.001,0.0,0.0,0.0
15/08/2023,04:42:08,0.002,0.0,0.0,0.0
15/08/2023,04:43:07,0.003,0.0,0.0,0.0
15/08/2023,04:44:08,0.002,0.0,0.0,0.0
15/08/2023,04:45:08,0.002,0.0,0.0,0.0
15/08/2023,04:46:07,0.002,0.0,0.0,0.0
15/08/2023,04:47:07,0.002,0.0,0.0,0.0
15/08/2023,04:48:08,0.003,0.0,0.0,0.0
15/08/2023,04:49:07,0.004,0.0,0.0,0.0
15/08/2023,04:50:08,0.003,0.0,0.0,0.0
15/08/2023,04:51:08,0.003,0.0,0.0,0.0
15/08/2023,04:52:07,0.003,0.0,0.0,0.0
15/08/2023,04:53:11,0.004,0.0,0.0,0.0
15/08/2023,04:54:08,0.003,0.0,0.0,0.0
15/08/2023,04:55:07,0.004,0.0,0.0,0.0
15/08/2023,04:56:07,0.004,0.0,0.0,0.0
15/08/2023,04:57:08,0.005,0.0,0.0,0.0
15/08/2023,04:58:08,0.006,0.0,0.0,0.0
15/08/2023,04:59:07,0.005,0.0,0.0,0.0
15/08/2023,05:00:08,0.005,0.0,0.0,0.0
15/08/2023,05:01:08,0.006,0.0,0.0,0.0
15/08/2023,05:02:07,0.006,0.0,0.0,0.0
15/08/2023,05:03:07,0.007,0.0,0.0,0.0
15/08/2023,05:04:07,0.007,0.0,0.0,0.0
15/08/2023,05:05:08,0.007,0.0,0.0,0.0
15/08/2023,05:06:06,0.007,0.0,0.0,0.0
15/08/2023,05:07:06,0.007,0.0,0.001,0.001
15/08/2023,05:08:08,0.008,0.0,0.001,0.0
15/08/2023,05:09:07,0.008,0.0,0.001,0.0
15/08/2023,05:10:07,0.008,0.0,0.001,0.0
15/08/2023,05:11:07,0.009,0.0,0.001,0.0
15/08/2023,05:12:08,0.009,0.0,0.001,0.0
15/08/2023,05:13:07,0.010,0.0,0.001,0.0
15/08/2023,05:14:08,0.012,0.0,0.002,0.001
15/08/2023,05:15:07,0.010,0.0,0.002,0.0
15/08/2023,05:16:08,0.011,0.0,0.002,0.0
15/08/2023,05:17:08,0.011,0.0,0.002,0.0
15/08/2023,05:18:07,0.012,0.0,0.002,0.0
15/08/2023,05:19:07,0.012,0.0,0.002,0.0
15/08/2023,05:20:08,0.013,0.0,0.003,0.001
15/08/2023,05:21:08,0.014,0.0,0.003,0.0
15/08/2023,05:22:07,0.014,0.0,0.003,0.0
15/08/2023,05:23:08,0.015,0.0,0.003,0.0
15/08/2023,05:24:08,0.015,0.0,0.004,0.001
15/08/2023,05:25:07,0.015,0.0,0.004,0.0
15/08/2023,05:26:09,0.016,0.0,0.004,0.0
15/08/2023,05:27:08,0.016,0.0,0.004,0.0
15/08/2023,05:28:07,0.017,0.0,0.005,0.001
15/08/2023,05:29:07,0.017,0.0,0.005,0.0
15/08/2023,05:30:08,0.018,0.0,0.005,0.0
15/08/2023,05:31:08,0.018,0.0,0.006,0.001
15/08/2023,05:32:08,0.019,0.0,0.006,0.0
15/08/2023,05:33:07,0.020,0.0,0.006,0.0
15/08/2023,05:34:08,0.021,0.0,0.007,0.001
15/08/2023,05:35:07,0.022,0.0,0.007,0.0
15/08/2023,05:36:08,0.023,0.0,0.007,0.0
15/08/2023,05:37:07,0.023,0.0,0.008,0.001
15/08/2023,05:38:08,0.024,0.0,0.008,0.0
15/08/2023,05:39:08,0.026,0.0,0.008,0.0
15/08/2023,05:40:08,0.026,0.0,0.009,0.001
15/08/2023,05:41:07,0.028,0.0,0.009,0.0
15/08/2023,05:42:07,0.028,0.0,0.01,0.001
15/08/2023,05:43:09,0.030,0.0,0.01,0.0
15/08/2023,05:44:08,0.030,0.0,0.011,0.001
15/08/2023,05:45:08,0.031,0.0,0.011,0.0
15/08/2023,05:46:05,0.033,0.0,0.012,0.001
15/08/2023,05:47:05,0.034,0.0,0.012,0.0
15/08/2023,05:48:07,0.034,0.0,0.013,0.001
15/08/2023,05:49:08,0.036,0.0,0.014,0.001
15/08/2023,05:50:08,0.033,0.0,0.014,0.0
15/08/2023,05:51:07,0.033,0.0,0.015,0.001
15/08/2023,05:52:07,0.034,0.0,0.015,0.0
15/08/2023,05:53:08,0.035,0.0,0.016,0.001
15/08/2023,05:54:08,0.035,0.0,0.016,0.0
15/08/2023,05:55:07,0.035,0.0,0.017,0.001
15/08/2023,05:56:07,0.037,0.0,0.018,0.001
15/08/2023,05:57:08,0.038,0.0,0.018,0.0
15/08/2023,05:58:08,0.039,0.0,0.019,0.001
15/08/2023,05:59:07,0.039,0.0,0.019,0.0
15/08/2023,06:00:08,0.040,0.0,0.02,0.001
15/08/2023,06:01:07,0.041,0.0,0.021,0.001
15/08/2023,06:02:08,0.040,0.0,0.021,0.0
15/08/2023,06:03:08,0.039,0.0,0.022,0.001
15/08/2023,06:04:08,0.039,0.0,0.023,0.001
15/08/2023,06:05:08,0.040,0.0,0.023,0.0
15/08/2023,06:06:07,0.041,0.0,0.024,0.001
15/08/2023,06:07:07,0.041,0.0,0.025,0.001
15/08/2023,06:08:06,0.041,0.0,0.025,0.0
15/08/2023,06:09:06,0.042,0.0,0.026,0.001
15/08/2023,06:10:07,0.045,0.0,0.027,0.001
15/08/2023,06:11:08,0.044,0.0,0.028,0.001
15/08/2023,06:12:07,0.047,0.0,0.028,0.0
15/08/2023,06:13:08,0.051,0.0,0.029,0.001
15/08/2023,06:14:08,0.052,0.0,0.03,0.001
15/08/2023,06:15:08,0.055,0.0,0.031,0.001
15/08/2023,06:16:08,0.061,0.0,0.032,0.001
15/08/2023,06:17:08,0.066,0.0,0.033,0.001
15/08/2023,06:18:07,0.070,0.0,0.034,0.001
15/08/2023,06:19:08,0.073,0.0,0.035,0.001
15/08/2023,06:20:07,0.079,0.0,0.037,0.002
15/08/2023,06:21:07,0.081,0.0,0.038,0.001
15/08/2023,06:22:08,0.081,0.0,0.039,0.001
15/08/2023,06:23:08,0.082,0.0,0.041,0.002
15/08/2023,06:24:07,0.084,0.0,0.042,0.001
15/08/2023,06:25:08,0.086,0.0,0.043,0.001
15/08/2023,06:26:08,0.087,0.0,0.045,0.002
15/08/2023,06:27:07,0.091,0.0,0.046,0.001
15/08/2023,06:28:08,0.094,0.0,0.048,0.002
15/08/2023,06:29:07,0.099,0.0,0.05,0.002
15/08/2023,06:30:07,0.099,0.0,0.051,0.001
15/08/2023,06:31:08,0.099,0.0,0.053,0.002
15/08/2023,06:32:08,0.098,0.0,0.054,0.001
15/08/2023,06:33:07,0.100,0.0,0.056,0.002
15/08/2023,06:34:07,0.098,0.0,0.058,0.002
15/08/2023,06:35:06,0.098,0.0,0.059,0.001
15/08/2023,06:36:06,0.098,0.0,0.061,0.002
15/08/2023,06:37:07,0.103,0.0,0.063,0.002
15/08/2023,06:38:08,0.104,0.0,0.064,0.001
15/08/2023,06:39:08,0.106,0.0,0.066,0.002
15/08/2023,06:40:07,0.107,0.0,0.068,0.002
15/08/2023,06:41:08,0.109,0.0,0.07,0.002
15/08/2023,06:42:08,0.113,0.0,0.072,0.002
15/08/2023,06:43:08,0.112,0.0,0.073,0.001
15/08/2023,06:44:07,0.111,0.0,0.075,0.002
15/08/2023,06:45:07,0.112,0.0,0.077,0.002
15/08/2023,06:46:06,0.115,0.0,0.079,0.002
15/08/2023,06:47:05,0.118,0.0,0.081,0.002
15/08/2023,06:48:07,0.120,0.0,0.083,0.002
15/08/2023,06:49:08,0.118,0.0,0.085,0.002
15/08/2023,06:50:08,0.121,0.0,0.087,0.002
15/08/2023,06:51:07,0.125,0.0,0.089,0.002
15/08/2023,06:52:08,0.128,0.0,0.091,0.002
15/08/2023,06:53:08,0.129,0.0,0.093,0.002
15/08/2023,06:54:09,0.133,0.0,0.095,0.002
15/08/2023,06:55:08,0.128,0.0,0.098,0.003
15/08/2023,06:56:08,0.128,0.0,0.1,0.002
15/08/2023,06:57:08,0.121,0.0,0.102,0.002
15/08/2023,06:58:08,0.114,0.0,0.104,0.002
15/08/2023,06:59:08,0.114,0.0,0.106,0.002
15/08/2023,07:00:08,0.115,0.0,0.108,0.002
15/08/2023,07:01:08,0.115,0.0,0.11,0.002
15/08/2023,07:02:07,0.115,0.0,0.111,0.001
15/08/2023,07:03:07,0.115,0.0,0.113,0.002
15/08/2023,07:04:08,0.113,0.0,0.115,0.002
15/08/2023,07:05:07,0.111,0.0,0.117,0.002
15/08/2023,07:06:08,0.111,0.0,0.119,0.002
15/08/2023,07:07:06,0.110,0.0,0.121,0.002
15/08/2023,07:08:06,0.113,0.0,0.123,0.002
15/08/2023,07:09:08,0.112,0.0,0.125,0.002
15/08/2023,07:10:08,0.115,0.0,0.126,0.001
15/08/2023,07:11:08,0.116,0.0,0.128,0.002
15/08/2023,07:12:08,0.121,0.0,0.13,0.002
15/08/2023,07:13:08,0.122,0.0,0.132,0.002
15/08/2023,07:14:08,0.121,0.0,0.134,0.002
15/08/2023,07:15:07,0.127,0.0,0.136,0.002
15/08/2023,07:16:08,0.132,0.0,0.139,0.003
15/08/2023,07:17:08,0.134,0.0,0.141,0.002
15/08/2023,07:18:08,0.140,0.0,0.143,0.002
15/08/2023,07:19:08,0.145,0.0,0.145,0.002
15/08/2023,07:20:07,0.147,0.0,0.148,0.003
15/08/2023,07:21:08,0.143,0.0,0.15,0.002
15/08/2023,07:22:07,0.143,0.0,0.153,0.003
15/08/2023,07:23:08,0.151,0.0,0.155,0.002
15/08/2023,07:24:08,0.153,0.0,0.158,0.003
15/08/2023,07:25:08,0.152,0.0,0.16,0.002
15/08/2023,07:26:08,0.155,0.0,0.163,0.003
15/08/2023,07:27:08,0.148,0.0,0.165,0.002
15/08/2023,07:28:08,0.143,0.0,0.168,0.003
15/08/2023,07:29:07,0.145,0.0,0.17,0.002
15/08/2023,07:30:08,0.141,0.0,0.173,0.003
15/08/2023,07:31:07,0.135,0.0,0.175,0.002
15/08/2023,07:32:08,0.134,0.0,0.177,0.002
15/08/2023,07:33:07,0.146,0.0,0.179,0.002
15/08/2023,07:34:07,0.145,0.0,0.182,0.003
15/08/2023,07:35:08,0.153,0.0,0.184,0.002
15/08/2023,07:36:08,0.158,0.0,0.187,0.003
15/08/2023,07:37:08,0.157,0.0,0.19,0.003
15/08/2023,07:38:07,0.164,0.0,0.192,0.002
15/08/2023,07:39:30,0.169,0.0,0.196,0.004
15/08/2023,07:40:07,0.169,0.0,0.198,0.002
15/08/2023,07:41:07,0.178,0.0,0.201,0.003
15/08/2023,07:42:08,0.171,0.0,0.204,0.003
15/08/2023,07:43:08,0.171,0.0,0.206,0.002
15/08/2023,07:44:08,0.185,0.0,0.209,0.003
15/08/2023,07:45:08,0.192,0.0,0.213,0.004
15/08/2023,07:46:08,0.182,0.0,0.216,0.003
15/08/2023,07:47:08,0.179,0.0,0.219,0.003
15/08/2023,07:48:08,0.189,0.0,0.222,0.003
15/08/2023,07:49:08,0.195,0.0,0.225,0.003
15/08/2023,07:50:06,0.194,0.0,0.228,0.003
15/08/2023,07:51:06,0.205,0.0,0.231,0.003
15/08/2023,07:52:08,0.214,0.0,0.235,0.004
15/08/2023,07:53:05,0.221,1.0,0.239,0.004
15/08/2023,07:54:06,0.227,1.0,0.242,0.003
15/08/2023,07:55:08,0.228,1.0,0.246,0.004
15/08/2023,07:56:08,0.235,1.0,0.25,0.004
15/08/2023,07:57:08,0.251,1.0,0.254,0.004
15/08/2023,07:58:06,0.261,1.0,0.258,0.004
15/08/2023,07:59:06,0.278,1.0,0.263,0.005
15/08/2023,08:00:07,0.286,1.0,0.268,0.005
15/08/2023,08:01:08,0.288,1.0,0.272,0.004
15/08/2023,08:02:08,0.293,1.0,0.277,0.005
15/08/2023,08:03:08,0.308,1.0,0.282,0.005
15/08/2023,08:04:08,0.309,1.0,0.287,0.005
15/08/2023,08:05:08,0.318,1.0,0.293,0.006
15/08/2023,08:06:08,0.334,1.0,0.298,0.005
15/08/2023,08:07:08,0.368,1.0,0.304,0.006
15/08/2023,08:08:08,0.381,1.0,0.31,0.006
15/08/2023,08:09:08,0.386,1.0,0.317,0.007
15/08/2023,08:10:08,0.391,1.0,0.323,0.006
15/08/2023,08:11:08,0.395,1.0,0.33,0.007
15/08/2023,08:12:08,0.405,1.0,0.336,0.006
15/08/2023,08:13:08,0.433,1.0,0.343,0.007
15/08/2023,08:14:08,0.375,1.0,0.35,0.007
15/08/2023,08:15:08,0.378,1.0,0.356,0.006
15/08/2023,08:16:08,0.396,1.0,0.363,0.007
15/08/2023,08:17:07,0.393,1.0,0.369,0.006
15/08/2023,08:18:08,0.412,1.0,0.376,0.007
15/08/2023,08:19:07,0.446,1.0,0.383,0.007
15/08/2023,08:20:07,0.418,1.0,0.39,0.007
15/08/2023,08:21:08,0.409,1.0,0.397,0.007
15/08/2023,08:22:08,0.439,1.0,0.404,0.007
15/08/2023,08:23:08,0.414,1.0,0.411,0.007
15/08/2023,08:24:08,0.447,1.0,0.418,0.007
15/08/2023,08:25:07,0.446,1.0,0.426,0.008
15/08/2023,08:26:08,0.451,1.0,0.433,0.007
15/08/2023,08:27:08,0.461,1.0,0.441,0.008
15/08/2023,08:28:08,0.461,1.0,0.448,0.007
15/08/2023,08:29:08,0.447,1.0,0.456,0.008
15/08/2023,08:30:08,0.467,1.0,0.464,0.008
15/08/2023,08:31:08,0.477,1.0,0.472,0.008
15/08/2023,08:32:08,0.504,1.0,0.48,0.008
15/08/2023,08:33:08,0.492,1.0,0.488,0.008
15/08/2023,08:34:08,0.497,1.0,0.496,0.008
15/08/2023,08:35:08,0.580,1.0,0.505,0.009
15/08/2023,08:36:09,0.545,1.0,0.515,0.01
15/08/2023,08:37:09,0.572,1.0,0.524,0.009
15/08/2023,08:38:08,0.596,1.0,0.534,0.01
15/08/2023,08:39:07,0.615,1.0,0.544,0.01
15/08/2023,08:40:07,0.612,1.0,0.554,0.01
15/08/2023,08:41:08,0.585,1.0,0.563,0.009
15/08/2023,08:42:08,0.814,2.0,0.576,0.013
15/08/2023,08:43:09,0.719,2.0,0.588,0.012
15/08/2023,08:44:08,0.675,2.0,0.599,0.011
15/08/2023,08:45:08,0.689,2.0,0.61,0.011
15/08/2023,08:46:06,0.612,1.0,0.621,0.011
15/08/2023,08:47:06,0.615,1.0,0.631,0.01
15/08/2023,08:48:08,0.653,2.0,0.642,0.011
15/08/2023,08:49:08,0.853,2.0,0.655,0.013
15/08/2023,08:50:08,0.869,2.0,0.668,0.013
15/08/2023,08:51:07,0.876,2.0,0.683,0.015
15/08/2023,08:52:08,0.897,2.0,0.698,0.015
15/08/2023,08:53:07,0.896,2.0,0.712,0.014
15/08/2023,08:54:08,0.907,2.0,0.727,0.015
15/08/2023,08:55:08,0.906,2.0,0.742,0.015
15/08/2023,08:56:08,0.918,2.0,0.757,0.015
15/08/2023,08:57:08,0.922,2.0,0.773,0.016
15/08/2023,08:58:08,0.926,2.0,0.788,0.015
15/08/2023,08:59:08,0.888,2.0,0.804,0.016
15/08/2023,09:00:08,0.932,2.0,0.819,0.015
15/08/2023,09:01:07,0.944,2.0,0.835,0.016
15/08/2023,09:02:30,0.955,2.0,0.856,0.021
15/08/2023,09:03:07,0.957,2.0,0.865,0.009
15/08/2023,09:04:08,0.967,2.0,0.882,0.017
15/08/2023,09:05:08,0.977,2.0,0.898,0.016
15/08/2023,09:06:08,0.987,2.0,0.914,0.016
15/08/2023,09:07:08,0.995,2.0,0.931,0.017
15/08/2023,09:08:08,1.005,2.0,0.948,0.017
15/08/2023,09:09:08,1.011,2.0,0.964,0.016
15/08/2023,09:10:08,1.021,2.0,0.981,0.017
15/08/2023,09:11:08,1.027,2.0,0.998,0.017
15/08/2023,09:12:08,1.036,2.0,1.016,0.018
15/08/2023,09:13:08,1.042,2.0,1.033,0.017
15/08/2023,09:14:08,1.046,2.0,1.05,0.017
15/08/2023,09:15:08,1.056,2.0,1.068,0.018
15/08/2023,09:16:08,1.066,2.0,1.085,0.017
15/08/2023,09:17:08,1.070,2.0,1.103,0.018
15/08/2023,09:18:08,1.071,2.0,1.121,0.018
15/08/2023,09:19:08,1.075,2.0,1.139,0.018
15/08/2023,09:20:08,1.085,2.0,1.157,0.018
15/08/2023,09:21:37,1.099,3.0,1.184,0.027
15/08/2023,09:23:08,1.112,3.0,1.212,0.028
15/08/2023,09:24:08,1.123,3.0,1.231,0.019
15/08/2023,09:25:08,1.135,3.0,1.249,0.018
15/08/2023,09:26:08,1.140,3.0,1.268,0.019
15/08/2023,09:27:08,1.143,3.0,1.287,0.019
15/08/2023,09:28:08,1.151,3.0,1.307,0.02
15/08/2023,09:29:08,1.150,3.0,1.326,0.019
15/08/2023,09:30:08,1.162,3.0,1.345,0.019
15/08/2023,09:31:08,1.171,3.0,1.364,0.019
15/08/2023,09:32:08,1.174,3.0,1.384,0.02
15/08/2023,09:33:08,1.184,3.0,1.403,0.019
15/08/2023,09:34:08,1.195,3.0,1.423,0.02
15/08/2023,09:35:08,1.213,3.0,1.443,0.02
15/08/2023,09:36:08,1.222,3.0,1.464,0.021
15/08/2023,09:37:08,1.230,3.0,1.484,0.02
15/08/2023,09:38:08,1.236,3.0,1.505,0.021
15/08/2023,09:39:08,1.257,3.0,1.526,0.021
15/08/2023,09:40:08,1.270,3.0,1.547,0.021
15/08/2023,09:41:08,1.247,3.0,1.567,0.02
15/08/2023,09:42:08,1.280,3.0,1.587,0.02
15/08/2023,09:43:08,1.281,3.0,1.608,0.021
15/08/2023,09:44:08,1.306,3.0,1.63,0.022
15/08/2023,09:45:08,1.337,3.0,1.652,0.022
15/08/2023,09:46:08,0.941,2.0,1.67,0.018
15/08/2023,09:47:08,1.254,3.0,1.689,0.019
15/08/2023,09:48:08,0.776,2.0,1.705,0.016
15/08/2023,09:49:08,0.775,2.0,1.717,0.012
15/08/2023,09:50:08,1.047,2.0,1.732,0.015
15/08/2023,09:51:08,1.310,3.0,1.753,0.021
15/08/2023,09:52:08,1.332,3.0,1.775,0.022
15/08/2023,09:53:08,1.353,3.0,1.797,0.022
15/08/2023,09:54:09,1.354,3.0,1.82,0.023
15/08/2023,09:55:08,1.354,3.0,1.842,0.022
15/08/2023,09:56:09,1.374,3.0,1.865,0.023
15/08/2023,09:57:08,1.381,3.0,1.888,0.023
15/08/2023,09:58:08,1.381,3.0,1.911,0.023
15/08/2023,09:59:08,1.398,3.0,1.934,0.023
15/08/2023,10:00:08,1.383,3.0,1.957,0.023